Weather History for KATT - May, 2013

Change the Weather History Date:

Wednesday, May 22, 2013

  Actual Average Record
Temperature  
Mean Temperature 78 °F 78 °F  
Max Temperature 94 °F 88 °F 98 °F (1939)
Min Temperature 61 °F 68 °F 54 °F (2001)
Degree Days  
Heating Degree Days 0 0  
Month to date heating degree days 12 0  
Since 1 July heating degree days 1251 1537  
Cooling Degree Days 13 13  
Month to date cooling degree days 212 234  
Year to date cooling degree days 484 486  
Growing Degree Days 26 (Base 50)    
Moisture  
Dew Point 61 °F    
Average Humidity 61    
Maximum Humidity 90    
Minimum Humidity 32    
Precipitation  
Precipitation 0.00 in 0.16 in 1.30 in (1898)
Month to date precipitation 1.50 2.99  
Year to date precipitation 9.15 12.08  
Snow  
Snow 0.00 in - - ()
Month to date snowfall 0.0  
Since 1 July snowfall T  
Snow Depth 0.00 in    
Sea Level Pressure  
Sea Level Pressure 29.86 in    
Wind  
Wind Speed 3 mph (ESE)    
Max Wind Speed 12 mph    
Max Gust Speed 17 mph    
Visibility 10 miles    
Events      
T = Trace of Precipitation, MM = Missing Value Source: NWS Daily Summary

Daily Weather History Graph

Daily Weather History Graph

Search for Another Location

Airport or City:

Trip Planner

Search our weather history database for the weather conditions in past years. The results will help you decide how hot, cold, wet, or windy it might be!

Date:

Astronomy

May. 22, 2013 Rise Set
Actual Time 6:33 AM CDT 8:22 PM CDT
Civil Twilight 6:06 AM CDT 8:49 PM CDT
Nautical Twilight 5:34 AM CDT 9:21 PM CDT
Astronomical Twilight 5:00 AM CDT 9:55 PM CDT
Moon 5:55 PM CDT (5/22) 4:26 AM CDT (5/22)
Length of Visible Light 14h 43m
Length of Day
13h 49m
Waxing Gibbous, 91% of the Moon is Illuminated
May 22
Waxing Gibbous
May 24
Full
May 31
Last Quarter
Jun 8
New
Jun 16
First Quarter

Hourly Weather History & Observations

Time (CDT) Temp. Heat Index Dew Point Humidity Pressure Visibility Wind Dir Wind Speed Gust Speed Precip Events Conditions
12:51 AM 70.0 °F - 61.0 °F 73% 29.87 in 10.0 mi Variable 3.5 mph - N/A   Overcast
1:51 AM 68.0 °F - 61.0 °F 78% 29.86 in 10.0 mi Calm Calm - N/A   Mostly Cloudy
2:51 AM 68.0 °F - 61.0 °F 78% 29.85 in 10.0 mi Calm Calm - N/A   Mostly Cloudy
3:51 AM 64.9 °F - 60.1 °F 84% 29.84 in 10.0 mi Calm Calm - N/A   Clear
4:51 AM 64.0 °F - 59.0 °F 84% 29.83 in 10.0 mi Calm Calm - N/A   Clear
5:51 AM 63.0 °F - 59.0 °F 87% 29.84 in 10.0 mi Calm Calm - N/A   Clear
6:51 AM 62.1 °F - 59.0 °F 90% 29.86 in 10.0 mi Calm Calm - N/A   Clear
7:51 AM 64.9 °F - 60.1 °F 84% 29.88 in 10.0 mi Calm Calm - N/A   Clear
8:51 AM 71.1 °F - 59.0 °F 66% 29.90 in 10.0 mi Variable 3.5 mph - N/A   Clear
9:51 AM 73.9 °F - 57.9 °F 57% 29.91 in 10.0 mi Calm Calm - N/A   Clear
10:51 AM 80.1 °F 80.1 °F 55.0 °F 42% 29.91 in 10.0 mi East 5.8 mph - N/A   Clear
11:51 AM 82.0 °F 81.3 °F 54.0 °F 38% 29.91 in 10.0 mi Variable 4.6 mph - N/A   Clear
12:51 PM 84.9 °F 83.2 °F 53.1 °F 33% 29.90 in 10.0 mi Variable 4.6 mph - N/A   Clear
1:51 PM 87.1 °F 85.9 °F 57.0 °F 36% 29.88 in 10.0 mi North 3.5 mph - N/A   Clear
2:51 PM 90.0 °F 88.1 °F 55.9 °F 31% 29.86 in 10.0 mi Variable 5.8 mph - N/A   Clear
3:51 PM 91.9 °F 90.6 °F 57.0 °F 31% 29.83 in 10.0 mi Calm Calm - N/A   Clear
4:51 PM 91.9 °F 91.2 °F 59.0 °F 33% 29.80 in 10.0 mi Variable 3.5 mph - N/A   Clear
5:51 PM 91.9 °F 95.4 °F 66.9 °F 44% 29.79 in 10.0 mi Variable 4.6 mph - N/A   Partly Cloudy
6:51 PM 89.1 °F 91.3 °F 66.0 °F 46% 29.79 in 10.0 mi Calm Calm - N/A   Clear
7:51 PM 87.1 °F 89.9 °F 66.9 °F 51% 29.80 in 10.0 mi Variable 5.8 mph - N/A   Clear
8:51 PM 84.9 °F 88.2 °F 68.0 °F 57% 29.82 in 10.0 mi ESE 6.9 mph - N/A   Clear
9:51 PM 82.9 °F 87.0 °F 70.0 °F 65% 29.85 in 10.0 mi SE 5.8 mph - N/A   Clear
10:51 PM 82.0 °F 85.9 °F 70.0 °F 67% 29.87 in 9.0 mi SE 6.9 mph - N/A   Clear
11:51 PM 81.0 °F 85.2 °F 72.0 °F 74% 29.88 in 8.0 mi SSE 6.9 mph - N/A   Scattered Clouds